DL9TPA-1 Weather Reports


time (UTC)temp
C
wind
direction
speed
KPH
gust
KPH
rain 1hr
cm
rain 24hr
cm
rain mn
cm
humidity
%
barometer
mb
20260507140342 11 0.0 0.0 0.00 2.57 2.24 98 1012.8
20260507135341 11 0.0 0.0 0.00 2.57 2.24 98 1012.7
20260507134339 11 0.0 0.0 0.00 2.57 2.24 98 1012.7
20260507133336 11 0.0 0.0 0.00 2.57 2.24 98 1012.5
20260507132335 11 0.0 0.0 0.00 2.57 2.24 98 1012.5
20260507131333 11 0.0 0.0 0.00 2.57 2.24 98 1012.3
20260507130330 11 0.0 0.0 0.00 2.57 2.24 99 1012.3
20260507125327 11 0.0 0.0 0.00 2.57 2.24 98 1012.2
20260507124329 11 0.0 0.0 0.05 2.57 2.24 98 1012.1
20260507123325 11 0.0 0.0 0.05 2.57 2.24 98 1012.0
20260507122323 11 0.0 0.0 0.05 2.57 2.24 98 1011.8
20260507121319 11 0.0 0.0 0.05 2.57 2.24 98 1011.8
20260507120319 10 0.0 0.0 0.08 2.57 2.24 98 1011.7
20260507115317 11 0.0 0.0 0.10 2.57 2.21 98 1011.6
20260507114315 11 0.0 0.0 0.10 2.51 2.18 98 1011.5
20260507113311 11 0.0 0.0 0.15 2.51 2.18 99 1011.4
20260507112310 11 0.0 0.0 0.18 2.51 2.18 98 1011.3
20260507111310 10 0.0 0.0 0.20 2.51 2.16 98 1011.2
20260507110307 10 0.0 0.0 0.20 2.49 2.16 98 1011.1
20260507105307 10 0.0 0.0 0.20 2.46 2.13 98 1011.1
20260507104302 10 0.0 0.0 0.15 2.41 2.08 98 1010.9
20260507103300 10 0.0 0.0 0.13 2.36 2.03 97 1010.7
20260507102257 11 0.0 0.0 0.10 2.34 2.01 98 1010.5
20260507101255 11 0.0 0.0 0.10 2.31 1.98 98 1010.3
20260507100253 11 0.0 0.0 0.18 2.29 1.96 98 1010.0
20260507095253 11 0.0 0.0 0.15 2.26 1.93 98 1010.0
20260507094251 11 0.0 0.0 0.20 2.26 1.93 98 1009.9
20260507093248 11 0.0 0.0 0.20 2.26 1.93 98 1009.8
20260507092248 11 0.0 0.0 0.20 2.26 1.93 98 1009.7
20260507091245 11 0.0 0.0 0.20 2.21 1.88 97 1009.6
20260507090244 11 0.0 0.0 0.10 2.13 1.78 97 1009.6
20260507085240 11 0.0 0.0 0.08 2.08 1.75 98 1009.3
20260507084238 11 0.0 0.0 0.05 2.06 1.73 98 1009.2
20260507083238 11 0.0 0.0 0.05 2.06 1.73 98 1009.2
20260507082236 11 0.0 0.0 0.03 2.03 1.70 98 1009.1
20260507081233 11 0.0 0.0 0.00 2.01 1.68 98 1009.0
20260507080229 11 0.0 0.0 0.00 2.01 1.68 98 1008.9
20260507075230 12 0.0 0.0 0.00 2.01 1.68 98 1008.8
20260507074225 12 0.0 0.0 0.00 2.01 1.68 98 1008.8
20260507073226 11 0.0 0.0 0.00 2.01 1.68 98 1008.7
20260507072223 11 0.0 0.0 0.00 2.01 1.68 98 1008.6
20260507071219 11 0.0 0.0 0.03 2.01 1.68 98 1008.6
20260507070217 11 0.0 0.0 0.03 2.01 1.68 98 1008.5
20260507065215 11 0.0 0.0 0.00 2.01 1.68 98 1008.5
20260507064216 11 0.0 0.0 0.03 2.01 1.68 98 1008.4
20260507063211 11 0.0 0.0 0.08 2.01 1.68 98 1008.3
20260507062211 11 0.0 0.0 0.15 2.01 1.68 98 1008.1
20260507061211 11 0.0 0.0 0.15 1.98 1.65 98 1008.0
20260507060205 11 0.0 0.0 0.18 1.98 1.65 98 1007.9
20260507055205 10 0.0 0.0 0.20 1.98 1.65 98 1007.9
20260507054203 10 0.0 0.0 0.20 1.98 1.65 98 1007.8
20260507053201 10 0.0 0.0 0.15 1.93 1.60 98 1007.7
20260507052159 10 0.0 0.0 0.10 1.85 1.52 98 1007.6
20260507051157 10 0.0 0.0 0.08 1.83 1.50 98 1007.5
20260507050155 10 0.0 0.0 0.08 1.80 1.47 98 1007.4
20260507045152 10 0.0 0.0 0.10 1.80 1.47 98 1007.3
20260507044150 10 0.0 0.0 0.13 1.78 1.45 98 1007.2
20260507043149 10 0.0 0.0 0.20 1.78 1.45 98 1007.1
20260507042146 10 0.0 0.0 0.25 1.78 1.42 98 1007.0
20260507041144 10 0.0 0.0 0.33 1.75 1.42 98 1007.0
20260507040142 10 0.0 0.0 0.38 1.73 1.40 98 1007.0
20260507035140 10 0.0 0.0 0.38 1.70 1.37 98 1007.0
20260507034139 10 0.0 0.0 0.33 1.65 1.32 98 1007.0
20260507033135 10 0.0 0.0 0.33 1.57 1.24 98 1007.0
20260507032136 10 0.0 0.0 0.33 1.52 1.19 98 1006.8
20260507031131 10 0.0 0.0 0.30 1.42 1.09 98 1006.8
20260507030130 10 0.0 0.0 0.28 1.37 1.04 98 1006.7
20260507025131 10 0.0 0.0 0.33 1.32 0.99 98 1006.7
20260507024127 10 0.0 0.0 0.30 1.32 0.99 98 1006.7
20260507023125 10 0.0 0.0 0.30 1.24 0.91 98 1006.7
20260507022123 10 0.0 0.0 0.30 1.19 0.86 98 1006.7
20260507021121 10 0.0 0.0 0.28 1.14 0.81 98 1006.7
20260507020118 10 0.0 0.0 0.28 1.09 0.76 98 1006.6
20260507015116 11 0.0 0.0 0.25 1.02 0.69 98 1006.6
20260507014114 11 0.0 0.0 0.33 1.02 0.69 98 1006.6
20260507013114 11 0.0 0.0 0.33 0.94 0.61 98 1006.5
20260507012112 11 0.0 0.0 0.41 0.89 0.56 97 1006.4
20260507011109 11 0.0 0.0 0.43 0.86 0.53 97 1006.4
20260507010107 11 0.0 0.0 0.43 0.81 0.48 97 1006.4
20260507005105 11 0.0 0.0 0.36 0.74 0.41 97 1006.5
20260507004105 11 0.0 0.0 0.30 0.69 0.36 97 1006.6
20260507003102 11 0.0 0.0 0.28 0.61 0.28 97 1006.6
20260507002059 11 0.0 0.0 0.15 0.48 0.15 97 1006.5
20260507001057 11 0.0 0.0 0.08 0.41 0.08 97 1006.4
20260507000055 11 0.0 0.0 0.05 0.38 0.05 97 1006.2
20260506235054 11 0.0 0.0 0.05 0.38 0.05 97 1006.1
20260506234050 11 0.0 0.0 0.03 0.36 0.03 97 1006.0
20260506233049 11 0.0 0.0 0.00 0.33 0.00 97 1005.8
20260506232047 10 0.0 0.0 0.00 0.33 0.00 97 1005.7
20260506231044 11 0.0 0.0 0.00 0.33 0.00 97 1005.7
20260506230043 11 0.0 0.0 0.00 0.33 0.00 97 1005.7
20260506225041 11 0.0 0.0 0.00 0.33 0.00 96 1005.7
20260506224040 11 0.0 0.0 0.00 0.33 0.00 96 1005.7
20260506223036 11 0.0 0.0 0.00 0.36 0.00 96 1005.8
20260506222033 11 0.0 0.0 0.00 0.36 0.00 96 1005.8
20260506221032 11 0.0 0.0 0.00 0.41 0.00 96 1005.8
20260506220030 11 0.0 0.0 0.00 0.43 0.00 95 1006.0
20260506215027 11 0.0 0.0 0.30 0.53 0.43 95 1005.9
20260506214025 11 0.0 0.0 0.30 0.71 0.43 94 1005.9
20260506213024 11 0.0 0.0 0.33 0.74 0.43 93 1005.7
20260506212023 12 0.0 0.0 0.33 0.74 0.43 91 1005.5
20260506211022 12 0.0 0.0 0.33 0.74 0.43 89 1005.6
20260506210022 13 0.0 0.0 0.33 0.74 0.43 90 1005.6
20260506205019 14 0.0 0.0 0.03 0.43 0.15 86 1005.8
20260506204017 14 0.0 0.0 0.03 0.43 0.15 86 1005.8
20260506203013 14 0.0 0.0 0.00 0.41 0.10 86 1005.7
20260506202011 13 0.0 0.0 0.00 0.64 0.10 86 1005.4
20260506201007 14 0.0 0.0 0.00 0.71 0.10 86 1005.0
20260506200007 14 0.0 0.0 0.00 0.79 0.10 85 1004.8
20260506195005 14 0.0 0.0 0.00 0.81 0.10 84 1004.7
20260506193501 15 0.0 0.0 0.00 0.81 0.10 83 1004.6
20260506192459 15 0.0 0.0 0.00 0.81 0.10 82 1004.5
20260506191457 15 0.0 0.0 0.00 0.81 0.10 82 1004.2
20260506190455 16 0.0 0.0 0.00 0.81 0.10 80 1004.0
20260506185454 16 0.0 0.0 0.00 0.81 0.10 79 1003.9
20260506184453 17 0.0 0.0 0.00 0.84 0.10 75 1003.9
20260506183451 17 0.0 0.0 0.00 0.89 0.10 75 1003.9
20260506182449 18 0.0 0.0 0.00 0.91 0.10 68 1003.8
20260506181447 18 0.0 0.0 0.00 0.99 0.10 59 1003.5
20260506180443 18 0.0 0.0 0.00 1.02 0.10 58 1003.5
20260506175442 18 0.0 0.0 0.00 1.02 0.10 59 1003.5
20260506174440 18 0.0 0.0 0.00 1.02 0.10 58 1003.5
20260506173438 19 0.0 0.0 0.00 1.02 0.10 58 1003.4
20260506172436 19 0.0 0.0 0.00 1.02 0.10 58 1003.3
20260506171433 19 0.0 0.0 0.00 1.04 0.10 57 1003.3
20260506170430 19 0.0 0.0 0.00 1.04 0.10 57 1003.3
20260506165430 19 0.0 0.0 0.00 1.04 0.10 57 1003.2
20260506164428 19 0.0 0.0 0.00 1.04 0.10 57 1003.3
20260506163427 19 0.0 0.0 0.00 1.04 0.10 56 1003.3
20260506162424 19 0.0 0.0 0.00 1.04 0.10 55 1003.3
20260506161421 19 0.0 0.0 0.00 1.04 0.10 54 1003.5
20260506160419 20 0.0 0.0 0.00 1.04 0.10 53 1003.7
20260506155418 20 0.0 0.0 0.00 1.04 0.10 53 1003.8
20260506154415 21 0.0 0.0 0.00 1.04 0.10 53 1003.9
20260506153416 21 0.0 0.0 0.00 1.04 0.10 53 1003.9
20260506152412 21 0.0 0.0 0.00 1.04 0.10 53 1004.0
20260506151408 21 0.0 0.0 0.00 1.04 0.10 53 1004.0
20260506150409 21 0.0 0.0 0.00 1.04 0.10 52 1004.1
20260506145405 22 0.0 0.0 0.00 1.04 0.10 52 1004.1
20260506144403 22 0.0 0.0 0.00 1.04 0.10 53 1004.1
20260506143400 22 0.0 0.0 0.00 1.04 0.10 53 1004.2
20260506142358 22 0.0 0.0 0.00 1.04 0.10 53 1004.2
20260506141357 22 0.0 0.0 0.00 1.04 0.10 51 1004.3